Montevideo, MN

4:59 AM CDT on May 25, 2018 (GMT -0500)
Montevideo-Chippewa County

Weather History for KMVE - September, 2012

Change the Weather History Date:

Sunday, September 23, 2012

  Actual Average Record
Temperature  
Mean Temperature 45 °F -  
Max Temperature 60 °F 68 °F 91 °F (2007)
Min Temperature 30 °F 41 °F 25 °F (1983)
Degree Days  
Heating Degree Days 20    
Moisture  
Dew Point 20 °F    
Average Humidity 43    
Maximum Humidity 80    
Minimum Humidity 13    
Precipitation  
Precipitation 0.00 in - - ()
Sea Level Pressure  
Sea Level Pressure 30.29 in    
Wind  
Wind Speed 4 mph (NW)    
Max Wind Speed 9 mph    
Max Gust Speed -    
Visibility 10 miles    
Events      
Averages and records for this station are not official NWS values.
T = Trace of Precipitation, MM = Missing Value Source: NWS Daily Summary

Daily Weather History Graph

Daily Weather History Graph

Search for Another Location

Airport or City:

Astronomy

Sep. 23, 2012 Rise Set
Actual Time 7:11 AM CDT 7:17 PM CDT
Civil Twilight 6:42 AM CDT 7:46 PM CDT
Nautical Twilight 6:08 AM CDT 8:20 PM CDT
Astronomical Twilight 5:32 AM CDT 8:55 PM CDT
Moon 3:33 PM CDT (9/23) 12:10 AM CDT (9/23)
Length of Visible Light 13h 04m
Length of Day
12h 05m
First Quarter, 60% of the Moon is Illuminated
Sep 23
First Quarter
Sep 29
Full
Oct 8
Last Quarter
Oct 15
New
Oct 21
First Quarter

Hourly Weather History & Observations

Time (CDT) Temp. Windchill Dew Point Humidity Pressure Visibility Wind Dir Wind Speed Gust Speed Precip Events Conditions
12:14 AM 39.2 °F 35.9 °F 24.8 °F 56% 30.28 in 10.0 mi NNW 4.6 mph - N/A   Clear
12:34 AM 39.2 °F 37.0 °F 24.8 °F 56% 30.28 in 10.0 mi NNW 3.5 mph - N/A   Clear
12:54 AM 39.2 °F 37.0 °F 24.8 °F 56% 30.28 in 10.0 mi NW 3.5 mph - N/A   Clear
1:14 AM 37.4 °F 34.9 °F 24.8 °F 60% 30.28 in 10.0 mi WNW 3.5 mph - N/A   Clear
1:34 AM 37.4 °F 33.8 °F 26.6 °F 65% 30.28 in 10.0 mi WNW 4.6 mph - N/A   Clear
1:54 AM 35.6 °F 32.8 °F 26.6 °F 70% 30.28 in 10.0 mi NW 3.5 mph - N/A   Clear
2:14 AM 35.6 °F 32.8 °F 26.6 °F 70% 30.29 in 10.0 mi WNW 3.5 mph - N/A   Clear
2:34 AM 33.8 °F 27.7 °F 24.8 °F 70% 30.29 in 10.0 mi NW 6.9 mph - N/A   Clear
2:54 AM 33.8 °F 30.8 °F 24.8 °F 70% 30.29 in 10.0 mi NW 3.5 mph - N/A   Clear
3:14 AM 33.8 °F 28.6 °F 24.8 °F 70% 30.29 in 10.0 mi NW 5.8 mph - N/A   Clear
3:34 AM 33.8 °F 30.8 °F 24.8 °F 70% 30.30 in 10.0 mi West 3.5 mph - N/A   Clear
3:54 AM 33.8 °F 29.6 °F 24.8 °F 70% 30.29 in 10.0 mi NW 4.6 mph - N/A   Clear
4:14 AM 32.0 °F 27.5 °F 24.8 °F 75% 30.29 in 10.0 mi NW 4.6 mph - N/A   Clear
4:34 AM 32.0 °F 26.4 °F 24.8 °F 75% 30.29 in 10.0 mi NW 5.8 mph - N/A   Clear
4:54 AM 32.0 °F 26.4 °F 24.8 °F 75% 30.29 in 10.0 mi NW 5.8 mph - N/A   Clear
5:14 AM 32.0 °F - 24.8 °F 75% 30.30 in 10.0 mi Calm Calm - N/A   Clear
5:34 AM 32.0 °F - 24.8 °F 75% 30.29 in 10.0 mi Calm Calm - N/A   Clear
5:54 AM 32.0 °F - 24.8 °F 75% 30.30 in 10.0 mi Calm Calm - N/A   Clear
6:15 AM 32.0 °F 28.7 °F 24.8 °F 75% 30.30 in 10.0 mi WNW 3.5 mph - N/A   Clear
6:34 AM 32.0 °F - 24.8 °F 75% 30.30 in 10.0 mi Calm Calm - N/A   Clear
6:54 AM 32.0 °F - 24.8 °F 75% 30.31 in 10.0 mi Calm Calm - N/A   Clear
7:15 AM 30.2 °F - 23.0 °F 75% 30.31 in 10.0 mi Calm Calm - N/A   Clear
7:34 AM 30.2 °F - 24.8 °F 80% 30.31 in 10.0 mi Calm Calm - N/A   Clear
7:54 AM 33.8 °F - 24.8 °F 70% 30.32 in 10.0 mi Calm Calm - N/A   Clear
8:15 AM 33.8 °F 30.8 °F 24.8 °F 70% 30.32 in 10.0 mi West 3.5 mph - N/A   Clear
8:24 AM 35.6 °F 31.7 °F 24.8 °F 65% 30.32 in 10.0 mi WNW 4.6 mph - N/A   Clear
9:11 AM - - - N/A% - - North - - N/A   Unknown
9:14 AM - - - N/A% - - North - - N/A   Unknown
9:21 AM - - - N/A% - - North - - N/A   Unknown
9:37 AM - - - N/A% 30.33 in - North - - N/A   Unknown
9:54 AM 48.2 °F - 24.8 °F 40% 30.33 in 10.0 mi NW 4.6 mph - N/A   Unknown
10:14 AM 50.0 °F - 21.2 °F 32% 30.32 in 10.0 mi WNW 5.8 mph - N/A   Clear
10:34 AM 51.8 °F - 21.2 °F 30% 30.32 in 10.0 mi West 6.9 mph - N/A   Clear
10:54 AM 53.6 °F - 21.2 °F 28% 30.32 in 10.0 mi NW 6.9 mph - N/A   Clear
10:55 AM 53.6 °F - 19.4 °F 26% 30.32 in 10.0 mi NW 8.1 mph - N/A   Clear
11:54 AM - - - N/A% - - North - - N/A   Unknown
11:55 AM - - - N/A% - - North - - N/A   Unknown
12:14 PM 55.4 °F - 17.6 °F 23% 30.31 in 10.0 mi North 5.8 mph - N/A   Clear
12:34 PM 55.4 °F - 15.8 °F 21% 30.31 in 10.0 mi NW 5.8 mph - N/A   Clear
12:54 PM 57.2 °F - 15.8 °F 20% 30.30 in 10.0 mi North 8.1 mph - N/A   Clear
1:14 PM 57.2 °F - 15.8 °F 20% 30.30 in 10.0 mi North 9.2 mph - N/A   Clear
1:34 PM 57.2 °F - 15.8 °F 20% 30.28 in 10.0 mi Calm Calm - N/A   Clear
1:54 PM 57.2 °F - 15.8 °F 20% 30.28 in 10.0 mi NNW 5.8 mph - N/A   Clear
2:14 PM 59.0 °F - 14.0 °F 17% 30.27 in 10.0 mi NNW 9.2 mph - N/A   Clear
2:34 PM 60.8 °F - 12.2 °F 15% 30.26 in 10.0 mi North 6.9 mph - N/A   Clear
2:54 PM 60.8 °F - 12.2 °F 15% 30.26 in 10.0 mi North 6.9 mph - N/A   Clear
3:14 PM 60.8 °F - 10.4 °F 14% 30.24 in 10.0 mi North 3.5 mph - N/A   Clear
3:34 PM 60.8 °F - 10.4 °F 14% 30.24 in 10.0 mi NNW 5.8 mph - N/A   Clear
3:54 PM 60.8 °F - 10.4 °F 14% 30.22 in 10.0 mi WNW 6.9 mph - N/A   Clear
4:14 PM 60.8 °F - 10.4 °F 14% 30.22 in 10.0 mi NW 5.8 mph - N/A   Clear
4:34 PM 60.8 °F - 8.6 °F 13% 30.21 in 10.0 mi WNW 8.1 mph - N/A   Clear
4:54 PM 60.8 °F - 8.6 °F 13% 30.21 in 10.0 mi NW 8.1 mph - N/A   Clear
5:14 PM 60.8 °F - 8.6 °F 13% 30.20 in 10.0 mi North 3.5 mph - N/A   Clear
5:34 PM - - - N/A% - - North - - N/A   Unknown
5:54 PM 60.8 °F - 10.4 °F 14% - 10.0 mi Calm Calm - N/A   Unknown
6:14 PM 60.8 °F - 10.4 °F 14% - 10.0 mi North 3.5 mph - N/A   Clear
6:34 PM 60.8 °F - 10.4 °F 14% - 10.0 mi Calm Calm - N/A   Clear
6:54 PM 57.2 °F - 12.2 °F 17% - 10.0 mi Calm Calm - N/A   Clear
7:14 PM 55.4 °F - 15.8 °F 21% - 10.0 mi Calm Calm - N/A   Clear
7:34 PM 53.6 °F - 19.4 °F 26% - 10.0 mi Calm Calm - N/A   Clear
7:54 PM 53.6 °F - 15.8 °F 22% - 10.0 mi Calm Calm - N/A   Clear
8:14 PM 51.8 °F - 21.2 °F 30% - 10.0 mi Calm Calm - N/A   Clear
8:34 PM 50.0 °F - 21.2 °F 32% - 10.0 mi Calm Calm - N/A   Clear
8:54 PM 50.0 °F - 19.4 °F 30% - 10.0 mi South 3.5 mph - N/A   Clear
9:14 PM 46.4 °F - 21.2 °F 37% - 10.0 mi Calm Calm - N/A   Clear
9:34 PM 46.4 °F - 24.8 °F 43% - 10.0 mi Calm Calm - N/A   Clear
9:54 PM 44.6 °F - 26.6 °F 49% - 10.0 mi Calm Calm - N/A   Clear
10:14 PM 44.6 °F - 21.2 °F 39% - 10.0 mi Calm Calm - N/A   Clear
10:34 PM 42.8 °F 41.1 °F 23.0 °F 46% - 10.0 mi South 3.5 mph - N/A   Clear
10:55 PM 42.8 °F 41.1 °F 23.0 °F 46% - 10.0 mi South 3.5 mph - N/A   Clear
11:14 PM 44.6 °F 41.4 °F 21.2 °F 39% - 10.0 mi SSW 5.8 mph - N/A   Clear
11:34 PM 46.4 °F 43.5 °F 21.2 °F 37% - 10.0 mi SSW 5.8 mph - N/A   Clear
11:54 PM 44.6 °F 42.2 °F 23.0 °F 43% - 10.0 mi SSW 4.6 mph - N/A   Clear